Home > Weather > New Orleans > Past weeks

Flag for USA Past Weather in New Orleans, Louisiana, USA — Yesterday and Last 2 Weeks

Now
90 °F

Overcast.


Feels Like: 99 °F
Forecast: 79 / 88 °F
Wind: 14 mph from East

Location: Lakefront Airport

Current Time: Aug 29, 2016 at 1:04:18 PM

Latest Report: Aug 29, 2016 at 11:53 AM


Visibility: 10 mi

Pressure: 29.98 "Hg

Humidity: 59%

Dew Point: 74 °F

Location of New OrleansLocation

Past Weather in New Orleans — Graph

°F

New Orleans Temperature Yesterday

Maximum temperature yesterday: 84 °F (at 8:53 AM)
Minimum temperature yesterday: 79 °F (at 6:53 PM)
Average temperature yesterday: 82 °F

High & Low Weather Summary for the Past Weeks

 TemperatureHumidityPressure
High95 °F (Aug 23, 2:53 PM)91% (Aug 17, 5:53 AM)30.20 "Hg (Aug 17, 5:53 AM)
Low79 °F (Aug 15, 5:53 AM)46% (Aug 22, 4:53 PM)29.89 "Hg (Aug 27, 4:53 PM)
Average84 °F75%30.03 "Hg
* Reported Aug 14 12:02 PM — Aug 29 11:53 AM, New Orleans, Weather by CustomWeather, © 2016

Note: Actual official high and low records may vary slightly from our data, if they occured in-between our weather recording intervals... More about our weather records

Advertising

New Orleans Weather History for the Previous 24 Hours

Scroll right to see more
 ConditionsComfort  
Time TempWeatherWind HumidityBarometerVisibility
11:53 AM
Mon, Aug 29
90 °FPartly sunny.14 mph59%29.98 "Hg10 mi
10:53 AM87 °FPassing clouds.13 mph67%29.98 "Hg10 mi
9:53 AM85 °FPassing clouds.13 mph75%29.97 "Hg10 mi
8:53 AM83 °FPassing clouds.13 mph74%29.96 "Hg10 mi
7:53 AM82 °FSunny.15 mph79%29.96 "Hg10 mi
6:53 AM81 °FClear.13 mph82%29.95 "Hg10 mi
5:53 AM81 °FClear.13 mph82%29.93 "Hg10 mi
4:53 AM81 °FClear.13 mph82%29.93 "Hg10 mi
3:53 AM81 °FClear.12 mph82%29.93 "Hg10 mi
2:53 AM81 °FClear.9 mph79%29.93 "Hg10 mi
1:53 AM81 °FClear.12 mph77%29.94 "Hg10 mi
12:53 AM81 °FClear.9 mph79%29.96 "Hg10 mi
11:53 PM
Sun, Aug 28
81 °FPassing clouds.9 mph82%29.97 "Hg10 mi
10:53 PM81 °FClear.8 mph79%29.98 "Hg10 mi
9:53 PM81 °FClear.13 mph82%29.97 "Hg10 mi
8:53 PM81 °FClear.9 mph79%29.94 "Hg10 mi
7:53 PM80 °FSunny.6 mph81%29.92 "Hg10 mi
6:53 PM79 °FPassing clouds.10 mph88%29.94 "Hg10 mi
5:53 PM84 °FPassing clouds.13 mph70%29.96 "Hg10 mi
4:53 PM84 °FScattered clouds.15 mph70%29.96 "Hg10 mi
4:00 PM84 °FScattered clouds.10 mph70%29.98 "Hg10 mi
3:53 PM84 °FPartly sunny.12 mph70%29.96 "Hg10 mi
2:53 PM84 °FPartly sunny.12 mph77%29.95 "Hg10 mi
2:00 PM83 °FPassing clouds.6 mph77%30.00 "Hg10 mi
Weather by CustomWeather, © 2016

See weather overviewHow to use our weather pages